Time,TemperatureF,DewpointF,PressureIn,WindDirection,WindDirectionDegrees,WindSpeedMPH,WindSpeedGustMPH,Humidity,HourlyPrecipIn,Conditions,Clouds,dailyrainin,SoftwareType,DateUTC
2013-02-26 00:00:00,21.9,8.6,28.50,SSW,202,0.0,0.0,56,0.00,CLR,OVC,0.00,WeatherDisplay:10.37,2013-02-26 05:00:00,
2013-02-26 00:05:00,21.6,8.3,28.50,SSW,202,0.0,0.0,56,0.00,CLR,OVC,0.00,WeatherDisplay:10.37,2013-02-26 05:05:00,
2013-02-26 00:10:00,20.8,7.2,28.50,SSW,202,0.0,0.0,55,0.00,CLR,OVC,0.00,WeatherDisplay:10.37,2013-02-26 05:10:00,
2013-02-26 00:15:00,20.7,7.4,28.50,SSW,202,0.0,0.0,56,0.00,CLR,OVC,0.00,WeatherDisplay:10.37,2013-02-26 05:15:00,
2013-02-26 00:20:00,20.8,7.6,28.50,SSW,202,0.0,0.0,56,0.00,CLR,OVC,0.00,WeatherDisplay:10.37,2013-02-26 05:20:00,
2013-02-26 00:25:00,21.0,7.8,28.50,SSW,202,0.0,0.0,56,0.00,CLR,OVC,0.00,WeatherDisplay:10.37,2013-02-26 05:25:00,
2013-02-26 00:30:00,21.0,7.8,28.50,SSW,202,0.0,0.0,56,0.00,CLR,OVC,0.00,WeatherDisplay:10.37,2013-02-26 05:30:00,
2013-02-26 00:35:00,21.6,8.7,28.50,SSW,202,0.0,0.0,57,0.00,CLR,OVC,0.00,WeatherDisplay:10.37,2013-02-26 05:35:00,
2013-02-26 00:40:00,21.9,9.0,28.50,SSW,202,0.0,0.0,57,0.00,CLR,OVC,0.00,WeatherDisplay:10.37,2013-02-26 05:40:00,
2013-02-26 00:45:00,21.9,9.0,28.50,SSW,202,0.0,0.0,57,0.00,CLR,OVC,0.00,WeatherDisplay:10.37,2013-02-26 05:45:00,
2013-02-26 00:50:00,22.1,9.2,28.53,SSW,202,0.0,0.0,57,0.00,CLR,OVC,0.00,WeatherDisplay:10.37,2013-02-26 05:50:00,
2013-02-26 00:55:00,22.1,9.2,28.53,SSW,202,0.0,0.0,57,0.00,CLR,OVC,0.00,WeatherDisplay:10.37,2013-02-26 05:55:00,
2013-02-26 01:00:00,22.3,9.3,28.53,SSW,202,0.0,0.0,57,0.00,CLR,OVC,0.00,WeatherDisplay:10.37,2013-02-26 06:00:00,
2013-02-26 01:05:00,22.3,9.3,28.53,SSW,202,0.0,0.0,57,0.00,CLR,OVC,0.00,WeatherDisplay:10.37,2013-02-26 06:05:00,
2013-02-26 01:10:00,22.3,9.3,28.53,SSW,202,0.0,0.0,57,0.00,CLR,OVC,0.00,WeatherDisplay:10.37,2013-02-26 06:10:00,
2013-02-26 01:15:00,22.5,9.5,28.53,SSW,202,0.0,0.0,57,0.00,CLR,OVC,0.00,WeatherDisplay:10.37,2013-02-26 06:15:00,
2013-02-26 01:20:00,22.5,9.5,28.53,South,183,0.0,0.0,57,0.00,CLR,OVC,0.00,WeatherDisplay:10.37,2013-02-26 06:20:00,
2013-02-26 01:25:00,22.6,10.1,28.53,South,183,0.0,0.0,58,0.00,CLR,OVC,0.00,WeatherDisplay:10.37,2013-02-26 06:25:00,
2013-02-26 01:30:00,22.6,10.1,28.53,South,183,0.0,0.0,58,0.00,CLR,OVC,0.00,WeatherDisplay:10.37,2013-02-26 06:30:00,
2013-02-26 01:35:00,22.8,10.2,28.53,South,183,0.0,0.0,58,0.00,CLR,OVC,0.00,WeatherDisplay:10.37,2013-02-26 06:35:00,
2013-02-26 01:40:00,23.0,10.4,28.53,South,183,0.0,0.0,58,0.00,CLR,OVC,0.00,WeatherDisplay:10.37,2013-02-26 06:40:00,
2013-02-26 01:45:00,23.0,10.4,28.53,South,183,0.0,0.0,58,0.00,CLR,OVC,0.00,WeatherDisplay:10.37,2013-02-26 06:45:00,
2013-02-26 01:50:00,23.4,10.7,28.53,South,183,0.0,0.0,58,0.00,CLR,OVC,0.00,WeatherDisplay:10.37,2013-02-26 06:50:00,
2013-02-26 01:55:00,23.5,10.9,28.53,South,183,0.0,0.0,58,0.00,CLR,OVC,0.00,WeatherDisplay:10.37,2013-02-26 06:55:00,
2013-02-26 02:00:00,23.5,10.9,28.53,South,183,0.0,0.0,58,0.00,CLR,OVC,0.00,WeatherDisplay:10.37,2013-02-26 07:00:00,
2013-02-26 02:05:00,23.5,10.9,28.53,South,183,0.0,0.0,58,0.00,CLR,OVC,0.00,WeatherDisplay:10.37,2013-02-26 07:05:00,
2013-02-26 02:10:00,23.7,11.1,28.53,South,183,0.0,0.0,58,0.00,CLR,OVC,0.00,WeatherDisplay:10.37,2013-02-26 07:10:00,
2013-02-26 02:15:00,23.9,11.6,28.53,South,183,0.0,0.0,59,0.00,CLR,OVC,0.00,WeatherDisplay:10.37,2013-02-26 07:15:00,
2013-02-26 02:20:00,24.1,12.2,28.53,South,183,0.0,0.0,60,0.00,CLR,OVC,0.00,WeatherDisplay:10.37,2013-02-26 07:20:00,
2013-02-26 02:25:00,24.1,12.2,28.53,South,183,0.0,0.0,60,0.00,CLR,OVC,0.00,WeatherDisplay:10.37,2013-02-26 07:25:00,
2013-02-26 02:30:00,24.3,12.4,28.53,South,183,0.0,0.0,60,0.00,CLR,OVC,0.00,WeatherDisplay:10.37,2013-02-26 07:30:00,
2013-02-26 02:35:00,24.3,12.4,28.53,South,183,0.0,0.0,60,0.00,CLR,OVC,0.00,WeatherDisplay:10.37,2013-02-26 07:35:00,
2013-02-26 02:40:00,24.3,12.4,28.53,South,183,0.0,0.0,60,0.00,CLR,OVC,0.00,WeatherDisplay:10.37,2013-02-26 07:40:00,
2013-02-26 02:45:00,24.3,12.4,28.53,South,183,0.0,0.0,60,0.00,CLR,OVC,0.00,WeatherDisplay:10.37,2013-02-26 07:45:00,
2013-02-26 02:50:00,24.3,12.4,28.53,South,183,0.0,0.0,60,0.00,CLR,OVC,0.00,WeatherDisplay:10.37,2013-02-26 07:50:00,
2013-02-26 02:55:00,24.4,12.5,28.53,South,183,0.0,0.0,60,0.00,CLR,OVC,0.00,WeatherDisplay:10.37,2013-02-26 07:55:00,
2013-02-26 03:00:00,24.4,12.5,28.53,South,183,0.0,0.0,60,0.00,CLR,OVC,0.00,WeatherDisplay:10.37,2013-02-26 08:00:00,
2013-02-26 03:05:00,24.4,12.5,28.53,South,183,0.0,0.0,60,0.00,CLR,OVC,0.00,WeatherDisplay:10.37,2013-02-26 08:05:00,
2013-02-26 03:10:00,24.6,12.7,28.53,South,183,0.0,0.0,60,0.00,CLR,OVC,0.00,WeatherDisplay:10.37,2013-02-26 08:10:00,
2013-02-26 03:15:00,24.6,12.7,28.53,South,183,0.0,0.0,60,0.00,CLR,OVC,0.00,WeatherDisplay:10.37,2013-02-26 08:15:00,
2013-02-26 03:20:00,24.6,12.7,28.53,South,183,0.0,0.0,60,0.00,CLR,OVC,0.00,WeatherDisplay:10.37,2013-02-26 08:20:00,
2013-02-26 03:25:00,24.6,12.7,28.53,South,183,0.0,0.0,60,0.00,CLR,OVC,0.00,WeatherDisplay:10.37,2013-02-26 08:25:00,
2013-02-26 03:30:00,24.6,12.7,28.53,South,183,0.0,0.0,60,0.00,CLR,OVC,0.00,WeatherDisplay:10.37,2013-02-26 08:30:00,
2013-02-26 03:35:00,24.6,12.7,28.50,South,183,0.0,0.0,60,0.00,CLR,OVC,0.00,WeatherDisplay:10.37,2013-02-26 08:35:00,
2013-02-26 03:40:00,24.6,12.7,28.50,South,183,0.0,0.0,60,0.00,CLR,OVC,0.00,WeatherDisplay:10.37,2013-02-26 08:40:00,
2013-02-26 03:45:00,24.4,12.5,28.50,South,183,0.0,0.0,60,0.00,CLR,OVC,0.00,WeatherDisplay:10.37,2013-02-26 08:45:00,
2013-02-26 03:50:00,24.4,12.5,28.53,South,183,0.0,0.0,60,0.00,CLR,OVC,0.00,WeatherDisplay:10.37,2013-02-26 08:50:00,
2013-02-26 03:55:00,24.4,12.5,28.53,South,183,0.0,0.0,60,0.00,CLR,OVC,0.00,WeatherDisplay:10.37,2013-02-26 08:55:00,
2013-02-26 04:00:00,24.4,12.5,28.53,South,183,0.0,0.0,60,0.00,CLR,OVC,0.00,WeatherDisplay:10.37,2013-02-26 09:00:00,
2013-02-26 04:05:00,24.4,12.5,28.50,South,183,0.0,0.0,60,0.00,CLR,OVC,0.00,WeatherDisplay:10.37,2013-02-26 09:05:00,
2013-02-26 04:10:00,24.4,12.5,28.50,South,183,0.0,0.0,60,0.00,CLR,OVC,0.00,WeatherDisplay:10.37,2013-02-26 09:10:00,
2013-02-26 04:15:00,24.4,12.5,28.50,South,183,0.0,0.0,60,0.00,CLR,OVC,0.00,WeatherDisplay:10.37,2013-02-26 09:15:00,
2013-02-26 04:20:00,24.4,12.5,28.53,South,183,0.0,0.0,60,0.00,CLR,OVC,0.00,WeatherDisplay:10.37,2013-02-26 09:20:00,
2013-02-26 04:25:00,24.4,12.5,28.53,South,183,0.0,0.0,60,0.00,CLR,OVC,0.00,WeatherDisplay:10.37,2013-02-26 09:25:00,
2013-02-26 04:30:00,24.4,12.5,28.53,South,183,0.0,0.0,60,0.00,CLR,OVC,0.00,WeatherDisplay:10.37,2013-02-26 09:30:00,
2013-02-26 04:35:00,24.4,12.5,28.50,South,183,0.0,0.0,60,0.00,CLR,OVC,0.00,WeatherDisplay:10.37,2013-02-26 09:35:00,
2013-02-26 04:40:00,24.6,12.7,28.50,South,183,0.0,0.0,60,0.00,CLR,OVC,0.00,WeatherDisplay:10.37,2013-02-26 09:40:00,
2013-02-26 04:45:00,24.6,12.7,28.50,South,183,0.0,0.0,60,0.00,CLR,OVC,0.00,WeatherDisplay:10.37,2013-02-26 09:45:00,
2013-02-26 04:50:00,24.6,12.7,28.50,South,183,0.0,0.0,60,0.00,CLR,OVC,0.00,WeatherDisplay:10.37,2013-02-26 09:50:00,
2013-02-26 04:55:00,24.6,12.7,28.50,South,183,0.0,0.0,60,0.00,CLR,OVC,0.00,WeatherDisplay:10.37,2013-02-26 09:55:00,
2013-02-26 05:00:00,24.6,12.7,28.50,South,183,0.0,0.0,60,0.00,CLR,OVC,0.00,WeatherDisplay:10.37,2013-02-26 10:00:00,
2013-02-26 05:05:00,24.6,12.7,28.50,South,183,0.0,0.0,60,0.00,CLR,OVC,0.00,WeatherDisplay:10.37,2013-02-26 10:05:00,
2013-02-26 05:10:00,24.6,12.7,28.50,South,183,0.0,0.0,60,0.00,CLR,OVC,0.00,WeatherDisplay:10.37,2013-02-26 10:10:00,
2013-02-26 05:15:00,24.6,12.7,28.50,South,183,0.0,0.0,60,0.00,CLR,OVC,0.00,WeatherDisplay:10.37,2013-02-26 10:15:00,
2013-02-26 05:20:00,24.6,12.7,28.50,South,183,0.0,0.0,60,0.00,CLR,OVC,0.00,WeatherDisplay:10.37,2013-02-26 10:20:00,
2013-02-26 05:25:00,24.6,13.1,28.50,South,183,0.0,0.0,61,0.00,CLR,OVC,0.00,WeatherDisplay:10.37,2013-02-26 10:25:00,
2013-02-26 05:30:00,24.4,12.9,28.50,South,183,0.0,0.0,61,0.00,CLR,OVC,0.00,WeatherDisplay:10.37,2013-02-26 10:30:00,
2013-02-26 05:35:00,24.4,12.9,28.50,ESE,120,0.0,0.0,61,0.00,CLR,OVC,0.00,WeatherDisplay:10.37,2013-02-26 10:35:00,
2013-02-26 05:40:00,24.4,12.9,28.50,ESE,120,0.0,0.0,61,0.00,CLR,OVC,0.00,WeatherDisplay:10.37,2013-02-26 10:40:00,
2013-02-26 05:45:00,24.4,12.9,28.50,ESE,120,0.0,0.0,61,0.00,CLR,OVC,0.00,WeatherDisplay:10.37,2013-02-26 10:45:00,
2013-02-26 05:50:00,24.4,12.9,28.50,ESE,120,0.0,0.0,61,0.00,CLR,OVC,0.00,WeatherDisplay:10.37,2013-02-26 10:50:00,
2013-02-26 05:55:00,24.4,12.9,28.50,ESE,120,0.0,0.0,61,0.00,CLR,OVC,0.00,WeatherDisplay:10.37,2013-02-26 10:55:00,
2013-02-26 06:00:00,24.4,12.9,28.50,ESE,120,0.0,0.0,61,0.00,CLR,OVC,0.00,WeatherDisplay:10.37,2013-02-26 11:00:00,
2013-02-26 06:05:00,24.4,12.5,28.50,ESE,120,0.0,0.0,60,0.00,CLR,OVC,0.00,WeatherDisplay:10.37,2013-02-26 11:05:00,
2013-02-26 06:10:00,25.2,16.4,28.50,ESE,120,0.0,0.0,69,0.00,CLR,OVC,0.00,WeatherDisplay:10.37,2013-02-26 11:10:00,
2013-02-26 06:15:00,24.8,15.7,28.50,ESE,120,0.0,0.0,68,0.00,CLR,OVC,0.00,WeatherDisplay:10.37,2013-02-26 11:15:00,
2013-02-26 06:20:00,24.6,15.2,28.50,ESE,112,0.0,3.5,67,0.00,CLR,OVC,0.00,WeatherDisplay:10.37,2013-02-26 11:20:00,
2013-02-26 06:25:00,24.4,15.0,28.50,ESE,112,0.0,2.3,67,0.00,CLR,OVC,0.00,WeatherDisplay:10.37,2013-02-26 11:25:00,
2013-02-26 06:30:00,24.4,15.0,28.50,ESE,112,0.0,0.0,67,0.00,CLR,OVC,0.00,WeatherDisplay:10.37,2013-02-26 11:30:00,
2013-02-26 06:35:00,24.4,14.7,28.50,ESE,112,0.0,0.0,66,0.00,CLR,OVC,0.00,WeatherDisplay:10.37,2013-02-26 11:35:00,
2013-02-26 06:40:00,24.4,14.7,28.50,ESE,112,0.0,0.0,66,0.00,CLR,OVC,0.00,WeatherDisplay:10.37,2013-02-26 11:40:00,
2013-02-26 06:45:00,24.3,14.5,28.50,ESE,112,0.0,0.0,66,0.00,CLR,OVC,0.00,WeatherDisplay:10.37,2013-02-26 11:45:00,
2013-02-26 06:50:00,24.3,14.2,28.50,ESE,112,0.0,0.0,65,0.00,CLR,OVC,0.00,WeatherDisplay:10.37,2013-02-26 11:50:00,
2013-02-26 06:55:00,24.3,14.5,28.50,ESE,112,0.0,0.0,66,0.00,CLR,OVC,0.00,WeatherDisplay:10.37,2013-02-26 11:55:00,
2013-02-26 07:00:00,24.3,14.5,28.50,ESE,112,0.0,0.0,66,0.00,CLR,OVC,0.00,WeatherDisplay:10.37,2013-02-26 12:00:00,
2013-02-26 07:05:00,24.1,14.4,28.50,ESE,112,0.0,0.0,66,0.00,CLR,OVC,0.00,WeatherDisplay:10.37,2013-02-26 12:05:00,
2013-02-26 07:10:00,23.9,14.2,28.50,ESE,112,0.0,0.0,66,0.00,CLR,OVC,0.00,WeatherDisplay:10.37,2013-02-26 12:10:00,
2013-02-26 07:15:00,23.9,14.2,28.50,ESE,112,0.0,0.0,66,0.00,CLR,OVC,0.00,WeatherDisplay:10.37,2013-02-26 12:15:00,
2013-02-26 07:20:00,23.9,14.2,28.50,ESE,112,0.0,0.0,66,0.00,CLR,OVC,0.00,WeatherDisplay:10.37,2013-02-26 12:20:00,
2013-02-26 07:25:00,23.9,14.2,28.50,ESE,112,0.0,0.0,66,0.00,CLR,OVC,0.00,WeatherDisplay:10.37,2013-02-26 12:25:00,
2013-02-26 07:30:00,23.7,14.0,28.50,ESE,112,0.0,0.0,66,0.00,CLR,OVC,0.00,WeatherDisplay:10.37,2013-02-26 12:30:00,
2013-02-26 07:35:00,23.9,14.2,28.50,ESE,112,0.0,0.0,66,0.00,CLR,OVC,0.00,WeatherDisplay:10.37,2013-02-26 12:35:00,
2013-02-26 07:40:00,23.9,14.2,28.50,ESE,112,0.0,0.0,66,0.00,CLR,OVC,0.00,WeatherDisplay:10.37,2013-02-26 12:40:00,
2013-02-26 07:45:00,23.9,14.2,28.50,ESE,112,0.0,0.0,66,0.00,CLR,OVC,0.00,WeatherDisplay:10.37,2013-02-26 12:45:00,
2013-02-26 07:50:00,24.1,14.4,28.50,ESE,112,0.0,0.0,66,0.00,CLR,OVC,0.00,WeatherDisplay:10.37,2013-02-26 12:50:00,
2013-02-26 07:55:00,24.3,14.5,28.50,ESE,112,0.0,0.0,66,0.00,CLR,OVC,0.00,WeatherDisplay:10.37,2013-02-26 12:55:00,
2013-02-26 08:00:00,24.4,14.7,28.50,ESE,112,0.0,0.0,66,0.00,CLR,OVC,0.00,WeatherDisplay:10.37,2013-02-26 13:00:00,
2013-02-26 08:05:00,24.4,14.7,28.50,ESE,112,0.0,0.0,66,0.00,CLR,OVC,0.00,WeatherDisplay:10.37,2013-02-26 13:05:00,
2013-02-26 08:10:00,24.6,14.9,28.50,ESE,112,0.0,0.0,66,0.00,CLR,OVC,0.00,WeatherDisplay:10.37,2013-02-26 13:10:00,
2013-02-26 08:15:00,25.0,15.2,28.50,ESE,112,0.0,0.0,66,0.00,CLR,OVC,0.00,WeatherDisplay:10.37,2013-02-26 13:15:00,
2013-02-26 08:20:00,25.2,15.4,28.50,ESE,112,0.0,0.0,66,0.00,CLR,OVC,0.00,WeatherDisplay:10.37,2013-02-26 13:20:00,
2013-02-26 08:25:00,25.2,15.4,28.50,ESE,112,0.0,0.0,66,0.00,CLR,OVC,0.00,WeatherDisplay:10.37,2013-02-26 13:25:00,
2013-02-26 08:30:00,25.5,15.7,28.50,ESE,112,0.0,0.0,66,0.00,CLR,OVC,0.00,WeatherDisplay:10.37,2013-02-26 13:30:00,
2013-02-26 08:35:00,25.7,15.9,28.53,ESE,112,0.0,0.0,66,0.00,CLR,OVC,0.00,WeatherDisplay:10.37,2013-02-26 13:35:00,
2013-02-26 08:40:00,26.1,16.2,28.53,ESE,112,0.0,0.0,66,0.00,CLR,OVC,0.00,WeatherDisplay:10.37,2013-02-26 13:40:00,
2013-02-26 08:45:00,26.2,16.4,28.53,ESE,112,0.0,0.0,66,0.00,CLR,OVC,0.00,WeatherDisplay:10.37,2013-02-26 13:45:00,
2013-02-26 08:50:00,26.6,17.1,28.53,ESE,112,0.0,0.0,67,0.00,CLR,OVC,0.00,WeatherDisplay:10.37,2013-02-26 13:50:00,
2013-02-26 08:55:00,27.0,17.5,28.53,ESE,112,0.0,0.0,67,0.00,CLR,OVC,0.00,WeatherDisplay:10.37,2013-02-26 13:55:00,
2013-02-26 09:00:00,27.5,18.0,28.53,ESE,112,0.0,0.0,67,0.00,CLR,OVC,0.00,WeatherDisplay:10.37,2013-02-26 14:00:00,
2013-02-26 09:05:00,27.9,18.3,28.50,ESE,109,0.0,2.3,67,0.00,CLR,OVC,0.00,WeatherDisplay:10.37,2013-02-26 14:05:00,
2013-02-26 09:10:00,28.4,18.5,28.50,East,93,0.0,3.1,66,0.00,CLR,OVC,0.00,WeatherDisplay:10.37,2013-02-26 14:10:00,
2013-02-26 09:15:00,29.1,19.2,28.50,ENE,63,0.0,0.0,66,0.00,CLR,OVC,0.00,WeatherDisplay:10.37,2013-02-26 14:15:00,
2013-02-26 09:20:00,29.8,19.5,28.50,ENE,64,0.0,0.0,65,0.00,CLR,OVC,0.00,WeatherDisplay:10.37,2013-02-26 14:20:00,
2013-02-26 09:25:00,30.2,19.1,28.50,ENE,65,0.0,0.0,63,0.00,CLR,OVC,0.00,WeatherDisplay:10.37,2013-02-26 14:25:00,
2013-02-26 09:30:00,30.7,18.1,28.50,ENE,76,0.0,0.0,59,0.00,CLR,OVC,0.00,WeatherDisplay:10.37,2013-02-26 14:30:00,
2013-02-26 09:35:00,31.3,17.8,28.50,East,89,0.0,0.0,57,0.00,CLR,OVC,0.00,WeatherDisplay:10.37,2013-02-26 14:35:00,
2013-02-26 09:40:00,31.5,16.7,28.50,ENE,71,0.0,3.5,54,0.00,CLR,OVC,0.00,WeatherDisplay:10.37,2013-02-26 14:40:00,
2013-02-26 09:45:00,31.6,16.9,28.50,ENE,62,2.2,0.0,54,0.00,CLR,OVC,0.00,WeatherDisplay:10.37,2013-02-26 14:45:00,
2013-02-26 09:50:00,31.5,15.4,28.50,NE,54,2.7,3.5,51,0.00,CLR,OVC,0.00,WeatherDisplay:10.37,2013-02-26 14:50:00,
2013-02-26 09:55:00,31.3,14.8,28.50,East,90,4.5,4.6,50,0.00,CLR,OVC,0.00,WeatherDisplay:10.37,2013-02-26 14:55:00,
2013-02-26 10:00:00,31.3,15.2,28.50,ESE,106,0.0,0.0,51,0.00,CLR,OVC,0.00,WeatherDisplay:10.37,2013-02-26 15:00:00,
2013-02-26 10:05:00,31.3,15.2,28.50,East,80,0.0,3.5,51,0.00,CLR,OVC,0.00,WeatherDisplay:10.37,2013-02-26 15:05:00,
2013-02-26 10:10:00,31.5,15.4,28.50,East,94,2.2,3.5,51,0.00,CLR,OVC,0.00,WeatherDisplay:10.37,2013-02-26 15:10:00,
2013-02-26 10:15:00,31.6,15.1,28.50,ESE,122,2.2,3.5,50,0.00,CLR,OVC,0.00,WeatherDisplay:10.37,2013-02-26 15:15:00,
2013-02-26 10:20:00,31.6,14.2,28.50,East,89,4.0,4.0,48,0.00,CLR,OVC,0.00,WeatherDisplay:10.37,2013-02-26 15:20:00,
2013-02-26 10:25:00,31.3,13.4,28.50,ENE,68,2.7,3.5,47,0.00,CLR,OVC,0.00,WeatherDisplay:10.37,2013-02-26 15:25:00,
2013-02-26 10:30:00,31.5,13.0,28.50,ENE,75,0.0,4.6,46,0.00,CLR,OVC,0.00,WeatherDisplay:10.37,2013-02-26 15:30:00,
2013-02-26 10:35:00,31.6,12.2,28.50,ESE,108,3.6,4.0,44,0.00,CLR,OVC,0.00,WeatherDisplay:10.37,2013-02-26 15:35:00,
2013-02-26 10:40:00,31.6,11.7,28.50,East,88,4.9,7.6,43,0.00,CLR,OVC,0.00,WeatherDisplay:10.37,2013-02-26 15:40:00,
2013-02-26 10:45:00,31.8,11.8,28.50,NE,49,4.0,4.0,43,0.00,CLR,OVC,0.00,WeatherDisplay:10.37,2013-02-26 15:45:00,
2013-02-26 10:50:00,32.0,11.5,28.50,ESE,108,4.0,6.9,42,0.00,CLR,OVC,0.00,WeatherDisplay:10.37,2013-02-26 15:50:00,
2013-02-26 10:55:00,32.2,11.1,28.50,North,357,4.0,8.1,41,0.00,CLR,OVC,0.00,WeatherDisplay:10.37,2013-02-26 15:55:00,
2013-02-26 11:00:00,31.8,10.8,28.50,ENE,61,4.0,5.8,41,0.00,CLR,OVC,0.00,WeatherDisplay:10.37,2013-02-26 16:00:00,
2013-02-26 11:05:00,31.8,10.8,28.50,NE,56,0.0,5.8,41,0.00,CLR,OVC,0.00,WeatherDisplay:10.37,2013-02-26 16:05:00,
2013-02-26 11:10:00,31.8,10.8,28.50,East,97,3.6,5.8,41,0.00,CLR,OVC,0.00,WeatherDisplay:10.37,2013-02-26 16:10:00,
2013-02-26 11:15:00,31.6,10.0,28.50,ESE,110,5.8,8.1,40,0.00,CLR,OVC,0.00,WeatherDisplay:10.37,2013-02-26 16:15:00,
2013-02-26 11:20:00,31.6,10.0,28.50,East,88,2.7,5.8,40,0.00,CLR,OVC,0.00,WeatherDisplay:10.37,2013-02-26 16:20:00,
2013-02-26 11:25:00,31.8,10.8,28.50,NE,40,4.0,5.8,41,0.00,CLR,OVC,0.00,WeatherDisplay:10.37,2013-02-26 16:25:00,
2013-02-26 11:30:00,31.8,10.2,28.50,NNE,29,0.0,3.5,40,0.00,CLR,OVC,0.00,WeatherDisplay:10.37,2013-02-26 16:30:00,
2013-02-26 11:35:00,31.8,10.2,28.50,East,100,4.0,5.8,40,0.00,CLR,OVC,0.00,WeatherDisplay:10.37,2013-02-26 16:35:00,
2013-02-26 11:40:00,31.6,10.0,28.50,East,93,3.6,3.6,40,0.00,CLR,OVC,0.00,WeatherDisplay:10.37,2013-02-26 16:40:00,
2013-02-26 11:45:00,31.5,9.9,28.50,ESE,106,2.7,5.8,40,0.00,CLR,OVC,0.00,WeatherDisplay:10.37,2013-02-26 16:45:00,
2013-02-26 11:50:00,31.5,9.9,28.50,SE,133,4.9,6.3,40,0.00,CLR,OVC,0.00,WeatherDisplay:10.37,2013-02-26 16:50:00,
2013-02-26 11:55:00,31.6,10.0,28.50,ENE,68,2.2,5.8,40,0.00,CLR,OVC,0.00,WeatherDisplay:10.37,2013-02-26 16:55:00,
2013-02-26 12:00:00,31.6,9.5,28.50,ENE,71,2.2,5.8,39,0.00,CLR,OVC,0.00,WeatherDisplay:10.37,2013-02-26 17:00:00,
2013-02-26 12:05:00,31.8,9.1,28.47,East,92,4.0,4.0,38,0.00,CLR,OVC,0.00,WeatherDisplay:10.37,2013-02-26 17:05:00,
2013-02-26 12:10:00,31.8,9.1,28.47,East,81,4.0,5.8,38,0.00,CLR,OVC,0.00,WeatherDisplay:10.37,2013-02-26 17:10:00,
2013-02-26 12:15:00,31.8,9.1,28.47,NE,55,3.6,3.6,38,0.00,CLR,OVC,0.00,WeatherDisplay:10.37,2013-02-26 17:15:00,
2013-02-26 12:20:00,32.0,9.2,28.47,NE,54,4.0,5.8,38,0.00,CLR,OVC,0.00,WeatherDisplay:10.37,2013-02-26 17:20:00,
2013-02-26 12:25:00,32.4,8.3,28.47,ESE,106,2.7,5.8,36,0.00,CLR,OVC,0.00,WeatherDisplay:10.37,2013-02-26 17:25:00,
2013-02-26 12:30:00,32.5,8.5,28.47,East,97,3.1,9.2,36,0.00,CLR,OVC,0.00,WeatherDisplay:10.37,2013-02-26 17:30:00,
2013-02-26 12:35:00,32.7,8.7,28.47,NNE,32,3.6,5.8,36,0.00,CLR,OVC,0.00,WeatherDisplay:10.37,2013-02-26 17:35:00,
2013-02-26 12:40:00,32.7,8.7,28.47,North,11,3.6,5.8,36,0.00,CLR,OVC,0.00,WeatherDisplay:10.37,2013-02-26 17:40:00,
2013-02-26 12:45:00,32.5,7.9,28.47,NE,53,4.0,5.8,35,0.00,CLR,OVC,0.00,WeatherDisplay:10.37,2013-02-26 17:45:00,
2013-02-26 12:50:00,32.2,8.2,28.47,ENE,57,5.8,5.8,36,0.00,CLR,OVC,0.00,WeatherDisplay:10.37,2013-02-26 17:50:00,
2013-02-26 12:55:00,31.8,7.9,28.47,NNE,26,3.1,5.8,36,0.00,CLR,OVC,0.00,WeatherDisplay:10.37,2013-02-26 17:55:00,
2013-02-26 13:00:00,31.6,8.3,28.47,East,81,4.0,4.6,37,0.00,CLR,OVC,0.00,WeatherDisplay:10.37,2013-02-26 18:00:00,
2013-02-26 13:05:00,31.8,7.9,28.47,SE,128,4.5,5.8,36,0.00,CLR,OVC,0.00,WeatherDisplay:10.37,2013-02-26 18:05:00,
2013-02-26 13:10:00,32.0,8.6,28.47,NE,50,4.5,5.8,37,0.00,CLR,OVC,0.00,WeatherDisplay:10.37,2013-02-26 18:10:00,
2013-02-26 13:15:00,32.4,8.9,28.47,ENE,74,3.1,5.8,37,0.00,CLR,OVC,0.00,WeatherDisplay:10.37,2013-02-26 18:15:00,
2013-02-26 13:20:00,32.4,8.3,28.47,East,86,0.0,3.5,36,0.00,CLR,OVC,0.00,WeatherDisplay:10.37,2013-02-26 18:20:00,
2013-02-26 13:25:00,32.2,8.2,28.47,ENE,75,0.0,0.0,36,0.00,CLR,OVC,0.00,WeatherDisplay:10.37,2013-02-26 18:25:00,
2013-02-26 13:30:00,32.2,8.2,28.47,North,353,2.7,8.1,36,0.00,CLR,OVC,0.00,WeatherDisplay:10.37,2013-02-26 18:30:00,
2013-02-26 13:35:00,32.2,8.2,28.44,East,89,4.0,4.6,36,0.00,CLR,OVC,0.00,WeatherDisplay:10.37,2013-02-26 18:35:00,
2013-02-26 13:40:00,32.4,8.9,28.44,East,97,3.1,3.5,37,0.00,CLR,OVC,0.00,WeatherDisplay:10.37,2013-02-26 18:40:00,
2013-02-26 13:45:00,32.7,8.7,28.44,NE,47,3.6,3.6,36,0.00,CLR,OVC,0.00,WeatherDisplay:10.37,2013-02-26 18:45:00,
2013-02-26 13:50:00,32.7,8.7,28.44,East,83,3.6,5.8,36,0.00,CLR,OVC,0.00,WeatherDisplay:10.37,2013-02-26 18:50:00,
2013-02-26 13:56:00,32.5,7.9,28.44,ESE,111,3.6,5.8,35,0.00,CLR,OVC,0.00,WeatherDisplay:10.37,2013-02-26 18:56:00,
2013-02-26 14:01:00,32.9,8.2,28.44,NNE,26,3.6,5.8,35,0.00,CLR,OVC,0.00,WeatherDisplay:10.37,2013-02-26 19:01:00,
2013-02-26 14:06:00,33.1,8.4,28.44,ENE,74,4.0,5.8,35,0.00,CLR,OVC,0.00,WeatherDisplay:10.37,2013-02-26 19:06:00,
2013-02-26 14:11:00,33.4,8.7,28.44,NNE,25,3.1,5.8,35,0.00,CLR,OVC,0.00,WeatherDisplay:10.37,2013-02-26 19:11:00,
2013-02-26 14:16:00,33.4,7.4,28.44,East,92,4.9,8.1,33,0.00,CLR,OVC,0.00,WeatherDisplay:10.37,2013-02-26 19:16:00,
2013-02-26 14:21:00,33.4,7.4,28.41,East,82,2.7,4.6,33,0.00,CLR,OVC,0.00,WeatherDisplay:10.37,2013-02-26 19:21:00,
2013-02-26 14:26:00,33.6,7.5,28.41,NE,47,4.9,5.4,33,0.00,CLR,OVC,0.00,WeatherDisplay:10.37,2013-02-26 19:26:00,
2013-02-26 14:31:00,33.4,7.4,28.41,East,91,0.0,2.3,33,0.00,CLR,OVC,0.00,WeatherDisplay:10.37,2013-02-26 19:31:00,
2013-02-26 14:36:00,33.1,7.1,28.41,ESE,115,4.0,5.8,33,0.00,CLR,OVC,0.00,WeatherDisplay:10.37,2013-02-26 19:36:00,
2013-02-26 14:41:00,33.6,7.5,28.41,ENE,58,7.6,9.2,33,0.00,CLR,OVC,0.00,WeatherDisplay:10.37,2013-02-26 19:41:00,
2013-02-26 14:46:00,33.1,7.1,28.41,ESE,113,6.3,8.1,33,0.00,CLR,OVC,0.00,WeatherDisplay:10.37,2013-02-26 19:46:00,
2013-02-26 14:51:00,33.1,7.1,28.41,North,357,6.3,9.2,33,0.00,CLR,OVC,0.00,WeatherDisplay:10.37,2013-02-26 19:51:00,
2013-02-26 14:56:00,32.9,6.9,28.41,ENE,63,3.6,5.8,33,0.00,CLR,OVC,0.00,WeatherDisplay:10.37,2013-02-26 19:56:00,
2013-02-26 15:01:00,32.9,6.9,28.41,NNW,336,5.8,8.1,33,0.00,CLR,OVC,0.00,WeatherDisplay:10.37,2013-02-26 20:01:00,
2013-02-26 15:06:00,32.9,6.9,28.41,ESE,104,5.4,8.1,33,0.00,CLR,OVC,0.00,WeatherDisplay:10.37,2013-02-26 20:06:00,
2013-02-26 15:11:00,32.9,6.9,28.41,East,100,3.1,5.8,33,0.00,CLR,OVC,0.00,WeatherDisplay:10.37,2013-02-26 20:11:00,
2013-02-26 15:16:00,32.7,7.4,28.41,NNE,19,3.6,6.7,34,0.00,CLR,OVC,0.00,WeatherDisplay:10.37,2013-02-26 20:16:00,
2013-02-26 15:21:00,32.4,6.4,28.41,NNE,21,4.0,5.8,33,0.00,CLR,OVC,0.00,WeatherDisplay:10.37,2013-02-26 20:21:00,
2013-02-26 15:26:00,32.5,7.2,28.41,NNE,23,5.4,8.1,34,0.00,CLR,OVC,0.00,WeatherDisplay:10.37,2013-02-26 20:26:00,
2013-02-26 15:31:00,32.2,6.3,28.41,NE,41,3.1,3.6,33,0.00,CLR,OVC,0.00,WeatherDisplay:10.37,2013-02-26 20:31:00,
2013-02-26 15:36:00,32.7,6.7,28.41,ENE,57,5.4,5.8,33,0.00,CLR,OVC,0.00,WeatherDisplay:10.37,2013-02-26 20:36:00,
2013-02-26 15:41:00,32.9,6.9,28.41,NE,55,4.9,5.8,33,0.00,CLR,OVC,0.00,WeatherDisplay:10.37,2013-02-26 20:41:00,
2013-02-26 15:46:00,33.3,7.2,28.41,East,99,0.0,3.5,33,0.00,CLR,OVC,0.00,WeatherDisplay:10.37,2013-02-26 20:46:00,
2013-02-26 15:51:00,32.9,6.2,28.41,ESE,103,5.8,8.1,32,0.00,CLR,OVC,0.00,WeatherDisplay:10.37,2013-02-26 20:51:00,
2013-02-26 15:56:00,32.7,6.7,28.41,ESE,119,3.1,5.8,33,0.00,CLR,OVC,0.00,WeatherDisplay:10.37,2013-02-26 20:56:00,
2013-02-26 16:01:00,32.7,6.7,28.41,NE,49,4.0,5.8,33,0.00,CLR,OVC,0.00,WeatherDisplay:10.37,2013-02-26 21:01:00,
2013-02-26 16:06:00,33.1,7.1,28.38,ENE,60,4.5,5.8,33,0.00,CLR,OVC,0.00,WeatherDisplay:10.37,2013-02-26 21:06:00,
2013-02-26 16:11:00,33.1,7.1,28.38,NNE,26,3.1,5.8,33,0.00,CLR,OVC,0.00,WeatherDisplay:10.37,2013-02-26 21:11:00,
2013-02-26 16:16:00,33.1,7.1,28.38,NNE,15,5.8,8.1,33,0.00,CLR,OVC,0.00,WeatherDisplay:10.37,2013-02-26 21:16:00,
2013-02-26 16:21:00,33.1,7.1,28.38,ENE,72,5.8,11.5,33,0.00,CLR,OVC,0.00,WeatherDisplay:10.37,2013-02-26 21:21:00,
2013-02-26 16:26:00,31.8,6.6,28.38,NNE,20,6.3,8.1,34,0.00,CLR,OVC,0.00,WeatherDisplay:10.37,2013-02-26 21:26:00,
2013-02-26 16:31:00,31.8,6.6,28.38,NNE,17,7.2,10.4,34,0.00,CLR,OVC,0.00,WeatherDisplay:10.37,2013-02-26 21:31:00,
2013-02-26 16:36:00,31.5,6.3,28.38,ENE,68,5.8,9.2,34,0.00,CLR,OVC,0.00,WeatherDisplay:10.37,2013-02-26 21:36:00,
2013-02-26 16:41:00,31.3,6.1,28.38,North,10,5.8,10.4,34,0.00,CLR,OVC,0.00,WeatherDisplay:10.37,2013-02-26 21:41:00,
2013-02-26 16:46:00,31.1,6.6,28.38,NE,54,4.9,5.8,35,0.00,CLR,OVC,0.00,WeatherDisplay:10.37,2013-02-26 21:46:00,
2013-02-26 16:51:00,30.7,6.3,28.38,ESE,106,3.1,5.8,35,0.00,CLR,OVC,0.00,WeatherDisplay:10.37,2013-02-26 21:51:00,
2013-02-26 16:56:00,30.7,6.3,28.38,NNE,31,2.7,6.3,35,0.00,CLR,OVC,0.00,WeatherDisplay:10.37,2013-02-26 21:56:00,
2013-02-26 17:01:00,30.2,5.8,28.38,NNE,33,5.8,11.5,35,0.00,CLR,OVC,0.00,WeatherDisplay:10.37,2013-02-26 22:01:00,
2013-02-26 17:06:00,30.0,5.6,28.38,ESE,123,5.4,10.4,35,0.00,CLR,OVC,0.00,WeatherDisplay:10.37,2013-02-26 22:06:00,
2013-02-26 17:11:00,30.0,5.6,28.38,East,82,7.2,8.1,35,0.00,CLR,OVC,0.00,WeatherDisplay:10.37,2013-02-26 22:11:00,
2013-02-26 17:16:00,30.0,5.6,28.38,ESE,106,6.3,9.2,35,0.00,CLR,OVC,0.00,WeatherDisplay:10.37,2013-02-26 22:16:00,
2013-02-26 17:21:00,30.0,5.6,28.38,NNE,29,5.8,8.1,35,0.00,CLR,OVC,0.00,WeatherDisplay:10.37,2013-02-26 22:21:00,
2013-02-26 17:26:00,29.5,7.0,28.38,East,87,5.8,8.1,38,0.00,CLR,OVC,0.00,WeatherDisplay:10.37,2013-02-26 22:26:00,
2013-02-26 17:31:00,29.5,7.0,28.38,NNE,24,6.7,8.1,38,0.00,CLR,OVC,0.00,WeatherDisplay:10.37,2013-02-26 22:31:00,
2013-02-26 17:36:00,29.5,7.0,28.38,North,357,9.2,12.7,38,0.00,CLR,OVC,0.00,WeatherDisplay:10.37,2013-02-26 22:36:00,
2013-02-26 17:41:00,29.5,7.0,28.38,ENE,57,4.5,5.8,38,0.00,CLR,OVC,0.00,WeatherDisplay:10.37,2013-02-26 22:41:00,
2013-02-26 17:46:00,28.8,8.0,28.38,NNE,29,4.9,5.8,41,0.00,CLR,OVC,0.00,WeatherDisplay:10.37,2013-02-26 22:46:00,
2013-02-26 17:51:00,28.8,8.0,28.38,NW,325,4.0,5.8,41,0.00,CLR,OVC,0.00,WeatherDisplay:10.37,2013-02-26 22:51:00,
2013-02-26 17:56:00,28.6,7.8,28.38,NE,52,4.0,5.8,41,0.00,CLR,OVC,0.00,WeatherDisplay:10.37,2013-02-26 22:56:00,
2013-02-26 18:01:00,28.6,7.8,28.38,ENE,63,5.8,6.9,41,0.00,CLR,OVC,0.00,WeatherDisplay:10.37,2013-02-26 23:01:00,
2013-02-26 18:06:00,28.6,7.8,28.38,East,88,2.2,3.5,41,0.00,CLR,OVC,0.00,WeatherDisplay:10.37,2013-02-26 23:06:00,
2013-02-26 18:11:00,28.6,7.8,28.38,ESE,106,3.6,6.9,41,0.00,CLR,OVC,0.00,WeatherDisplay:10.37,2013-02-26 23:11:00,
2013-02-26 18:16:00,28.6,7.8,28.38,NNE,30,6.3,12.7,41,0.00,CLR,OVC,0.00,WeatherDisplay:10.37,2013-02-26 23:16:00,
2013-02-26 18:21:00,27.9,7.7,28.41,East,87,3.1,5.8,42,0.00,CLR,OVC,0.00,WeatherDisplay:10.37,2013-02-26 23:21:00,
2013-02-26 18:26:00,27.9,7.7,28.41,NE,51,4.9,9.2,42,0.00,CLR,OVC,0.00,WeatherDisplay:10.37,2013-02-26 23:26:00,
2013-02-26 18:31:00,27.9,7.7,28.41,ENE,59,4.0,4.6,42,0.00,CLR,OVC,0.00,WeatherDisplay:10.37,2013-02-26 23:31:00,
2013-02-26 18:36:00,27.9,7.7,28.41,NNE,26,6.7,9.2,42,0.00,CLR,OVC,0.00,WeatherDisplay:10.37,2013-02-26 23:36:00,
2013-02-26 18:41:00,27.9,7.7,28.41,WNW,294,5.4,8.1,42,0.00,CLR,OVC,0.00,WeatherDisplay:10.37,2013-02-26 23:41:00,
2013-02-26 18:46:00,27.5,8.4,28.41,NNE,25,2.7,3.5,44,0.00,CLR,OVC,0.00,WeatherDisplay:10.37,2013-02-26 23:46:00,
2013-02-26 18:51:00,27.5,8.9,28.41,East,88,0.0,4.6,45,0.00,CLR,OVC,0.00,WeatherDisplay:10.37,2013-02-26 23:51:00,
2013-02-26 18:56:00,27.5,8.9,28.41,ESE,107,7.6,11.5,45,0.00,CLR,OVC,0.00,WeatherDisplay:10.37,2013-02-26 23:56:00,
2013-02-26 19:01:00,27.5,8.9,28.41,NE,42,3.1,5.8,45,0.00,CLR,OVC,0.00,WeatherDisplay:10.37,2013-02-27 00:01:00,
2013-02-26 19:06:00,27.3,8.7,28.41,NE,56,4.5,5.8,45,0.00,CLR,OVC,0.00,WeatherDisplay:10.37,2013-02-27 00:06:00,
2013-02-26 19:11:00,27.3,9.2,28.41,NE,45,5.4,8.1,46,0.00,CLR,OVC,0.00,WeatherDisplay:10.37,2013-02-27 00:11:00,
2013-02-26 19:16:00,27.3,9.2,28.41,ENE,75,6.3,8.1,46,0.00,CLR,OVC,0.00,WeatherDisplay:10.37,2013-02-27 00:16:00,
2013-02-26 19:21:00,27.5,9.9,28.41,NE,49,4.9,5.8,47,0.00,CLR,OVC,0.00,WeatherDisplay:10.37,2013-02-27 00:21:00,
2013-02-26 19:26:00,27.5,10.4,28.41,East,101,5.4,8.1,48,0.00,CLR,OVC,0.00,WeatherDisplay:10.37,2013-02-27 00:26:00,
2013-02-26 19:31:00,27.5,9.9,28.41,NE,42,4.5,5.8,47,0.00,CLR,OVC,0.00,WeatherDisplay:10.37,2013-02-27 00:31:00,
2013-02-26 19:36:00,27.7,10.0,28.38,NE,53,5.4,8.1,47,0.00,CLR,OVC,0.00,WeatherDisplay:10.37,2013-02-27 00:36:00,
2013-02-26 19:41:00,27.7,10.0,28.38,East,80,4.5,6.9,47,0.00,CLR,OVC,0.00,WeatherDisplay:10.37,2013-02-27 00:41:00,
2013-02-26 19:46:00,27.7,10.5,28.38,NE,42,3.1,3.5,48,0.00,CLR,OVC,0.00,WeatherDisplay:10.37,2013-02-27 00:46:00,
2013-02-26 19:51:00,27.5,10.4,28.38,NNE,20,4.9,5.8,48,0.00,CLR,OVC,0.00,WeatherDisplay:10.37,2013-02-27 00:51:00,
2013-02-26 19:56:00,27.5,10.8,28.38,NNE,20,5.8,9.2,49,0.00,CLR,OVC,0.00,WeatherDisplay:10.37,2013-02-27 00:56:00,
2013-02-26 20:01:00,27.5,11.3,28.38,East,80,3.6,3.6,50,0.00,CLR,OVC,0.00,WeatherDisplay:10.37,2013-02-27 01:01:00,
2013-02-26 20:06:00,27.5,11.3,28.38,North,2,2.2,5.8,50,0.00,CLR,OVC,0.00,WeatherDisplay:10.37,2013-02-27 01:06:00,
2013-02-26 20:11:00,27.5,11.3,28.38,ENE,65,3.6,5.8,50,0.00,CLR,OVC,0.00,WeatherDisplay:10.37,2013-02-27 01:11:00,
2013-02-26 20:16:00,27.7,11.0,28.38,East,98,5.4,5.8,49,0.00,CLR,OVC,0.00,WeatherDisplay:10.37,2013-02-27 01:16:00,
2013-02-26 20:21:00,27.5,9.9,28.38,East,85,3.6,5.8,47,0.00,CLR,OVC,0.00,WeatherDisplay:10.37,2013-02-27 01:21:00,
2013-02-26 20:26:00,27.5,9.9,28.38,ESE,120,8.3,9.2,47,0.00,CLR,OVC,0.00,WeatherDisplay:10.37,2013-02-27 01:26:00,
2013-02-26 20:31:00,27.5,9.9,28.38,ENE,68,6.3,10.4,47,0.00,CLR,OVC,0.00,WeatherDisplay:10.37,2013-02-27 01:31:00,
2013-02-26 20:36:00,27.5,9.9,28.38,East,89,4.9,10.4,47,0.00,CLR,OVC,0.00,WeatherDisplay:10.37,2013-02-27 01:36:00,
2013-02-26 20:41:00,27.7,10.0,28.38,NE,37,4.0,5.8,47,0.00,CLR,OVC,0.00,WeatherDisplay:10.37,2013-02-27 01:41:00,
2013-02-26 20:46:00,27.7,10.0,28.38,ENE,76,4.9,5.8,47,0.00,CLR,OVC,0.00,WeatherDisplay:10.37,2013-02-27 01:46:00,
2013-02-26 20:51:00,27.5,10.4,28.38,ENE,77,5.8,10.4,48,0.00,CLR,OVC,0.00,WeatherDisplay:10.37,2013-02-27 01:51:00,
2013-02-26 20:56:00,27.5,10.4,28.38,ESE,115,2.2,4.0,48,0.00,CLR,OVC,0.00,WeatherDisplay:10.37,2013-02-27 01:56:00,
2013-02-26 21:01:00,27.5,10.4,28.38,ENE,73,5.4,8.1,48,0.00,CLR,OVC,0.00,WeatherDisplay:10.37,2013-02-27 02:01:00,
2013-02-26 21:06:00,27.5,10.4,28.38,North,0,4.0,5.8,48,0.00,CLR,OVC,0.00,WeatherDisplay:10.37,2013-02-27 02:06:00,
2013-02-26 21:11:00,27.7,10.5,28.38,ESE,104,3.1,5.8,48,0.00,CLR,OVC,0.00,WeatherDisplay:10.37,2013-02-27 02:11:00,
2013-02-26 21:16:00,27.7,10.5,28.38,NNE,32,4.9,8.1,48,0.00,CLR,OVC,0.00,WeatherDisplay:10.37,2013-02-27 02:16:00,
2013-02-26 21:21:00,27.7,11.0,28.38,NNE,19,5.8,6.9,49,0.00,CLR,OVC,0.00,WeatherDisplay:10.37,2013-02-27 02:21:00,
2013-02-26 21:26:00,27.7,11.0,28.38,North,357,4.0,9.2,49,0.00,CLR,OVC,0.00,WeatherDisplay:10.37,2013-02-27 02:26:00,
2013-02-26 21:31:00,27.7,11.0,28.38,ENE,64,5.4,9.2,49,0.00,CLR,OVC,0.00,WeatherDisplay:10.37,2013-02-27 02:31:00,
2013-02-26 21:36:00,27.7,11.0,28.38,ENE,72,3.1,5.8,49,0.00,CLR,OVC,0.00,WeatherDisplay:10.37,2013-02-27 02:36:00,
2013-02-26 21:41:00,27.7,11.0,28.38,ENE,67,5.4,5.8,49,0.00,CLR,OVC,0.00,WeatherDisplay:10.37,2013-02-27 02:41:00,
2013-02-26 21:46:00,27.7,11.0,28.38,North,10,4.0,5.8,49,0.00,CLR,OVC,0.00,WeatherDisplay:10.37,2013-02-27 02:46:00,
2013-02-26 21:51:00,27.7,11.4,28.35,NNE,32,2.2,3.5,50,0.00,CLR,OVC,0.00,WeatherDisplay:10.37,2013-02-27 02:51:00,
2013-02-26 21:56:00,27.7,11.4,28.35,ENE,65,4.9,10.4,50,0.00,CLR,OVC,0.00,WeatherDisplay:10.37,2013-02-27 02:56:00,
2013-02-26 22:01:00,27.7,11.4,28.35,NE,35,4.0,8.1,50,0.00,CLR,OVC,0.00,WeatherDisplay:10.37,2013-02-27 03:01:00,
2013-02-26 22:06:00,27.7,11.4,28.35,NNE,24,2.2,5.8,50,0.00,CLR,OVC,0.00,WeatherDisplay:10.37,2013-02-27 03:06:00,
2013-02-26 22:11:00,27.5,11.7,28.35,ENE,66,4.9,8.1,51,0.00,CLR,OVC,0.00,WeatherDisplay:10.37,2013-02-27 03:11:00,
2013-02-26 22:16:00,27.5,11.7,28.35,SSE,147,5.4,10.4,51,0.00,CLR,OVC,0.00,WeatherDisplay:10.37,2013-02-27 03:16:00,
2013-02-26 22:21:00,27.5,11.7,28.35,North,7,3.6,5.8,51,0.00,CLR,OVC,0.00,WeatherDisplay:10.37,2013-02-27 03:21:00,
2013-02-26 22:26:00,27.5,11.3,28.35,NE,35,3.1,7.6,50,0.00,CLR,OVC,0.00,WeatherDisplay:10.37,2013-02-27 03:26:00,
2013-02-26 22:31:00,27.5,10.8,28.35,East,85,5.4,8.1,49,0.00,CLR,OVC,0.00,WeatherDisplay:10.37,2013-02-27 03:31:00,
2013-02-26 22:36:00,27.5,11.3,28.35,NNE,30,2.2,3.5,50,0.00,CLR,OVC,0.00,WeatherDisplay:10.37,2013-02-27 03:36:00,
2013-02-26 22:41:00,27.5,11.3,28.35,NE,41,4.0,5.8,50,0.00,CLR,OVC,0.00,WeatherDisplay:10.37,2013-02-27 03:41:00,
2013-02-26 22:46:00,27.5,11.3,28.35,NNE,23,5.4,5.8,50,0.00,CLR,OVC,0.00,WeatherDisplay:10.37,2013-02-27 03:46:00,
2013-02-26 22:51:00,27.5,11.7,28.35,ENE,74,4.5,5.8,51,0.00,CLR,OVC,0.00,WeatherDisplay:10.37,2013-02-27 03:51:00,
2013-02-26 22:56:00,27.5,11.7,28.35,ESE,102,0.0,3.5,51,0.00,CLR,OVC,0.00,WeatherDisplay:10.37,2013-02-27 03:56:00,
2013-02-26 23:01:00,27.5,11.7,28.35,NE,37,2.2,2.3,51,0.00,CLR,OVC,0.00,WeatherDisplay:10.37,2013-02-27 04:01:00,
2013-02-26 23:06:00,27.5,12.2,28.35,ESE,109,2.7,4.6,52,0.00,CLR,OVC,0.00,WeatherDisplay:10.37,2013-02-27 04:06:00,
2013-02-26 23:11:00,27.5,12.2,28.35,NE,44,3.1,3.5,52,0.00,CLR,OVC,0.00,WeatherDisplay:10.37,2013-02-27 04:11:00,
2013-02-26 23:16:00,27.5,12.2,28.35,NE,37,2.7,3.5,52,0.00,CLR,OVC,0.00,WeatherDisplay:10.37,2013-02-27 04:16:00,
2013-02-26 23:21:00,27.5,12.2,28.35,NE,37,3.1,4.6,52,0.00,CLR,OVC,0.00,WeatherDisplay:10.37,2013-02-27 04:21:00,
2013-02-26 23:26:00,27.5,12.2,28.35,NNE,33,4.0,8.1,52,0.00,CLR,OVC,0.00,WeatherDisplay:10.37,2013-02-27 04:26:00,
2013-02-26 23:31:00,27.5,12.2,28.35,ENE,58,3.1,3.5,52,0.00,CLR,OVC,0.00,WeatherDisplay:10.37,2013-02-27 04:31:00,
2013-02-26 23:36:00,27.5,12.2,28.32,NNE,33,5.4,8.1,52,0.00,CLR,OVC,0.00,WeatherDisplay:10.37,2013-02-27 04:36:00,
2013-02-26 23:41:00,27.5,12.2,28.32,NNE,23,4.9,5.8,52,0.00,CLR,OVC,0.00,WeatherDisplay:10.37,2013-02-27 04:41:00,
2013-02-26 23:46:00,27.5,12.2,28.32,East,79,0.0,3.5,52,0.00,CLR,OVC,0.00,WeatherDisplay:10.37,2013-02-27 04:46:00,
2013-02-26 23:51:00,27.5,12.2,28.32,NE,42,4.9,5.8,52,0.00,CLR,OVC,0.00,WeatherDisplay:10.37,2013-02-27 04:51:00,
2013-02-26 23:56:00,27.5,12.2,28.32,ENE,68,3.1,4.6,52,0.00,CLR,OVC,0.00,WeatherDisplay:10.37,2013-02-27 04:56:00,